FW7315 Weather Reports


time (UTC)temp
C
wind
direction
speed
KPH
gust
KPH
rain 1hr
cm
rain 24hr
cm
rain mn
cm
humidity
%
barometer
mb
20260507203002 15 78 6.4 11.3 0.00 0.00 0.00 82 1011.1
20260507201600 15 92 3.2 9.7 0.00 0.00 0.00 83 1011.2
20260507194600 15 59 4.8 8.0 0.00 0.00 0.00 84 1011.2
20260507193057 15 97 4.8 14.5 0.00 0.00 0.00 87 1011.0
20260507191559 15 78 3.2 9.7 0.00 0.00 0.00 88 1010.8
20260507190057 15 104 3.2 9.7 0.00 0.00 0.00 88 1010.8
20260507184556 15 104 6.4 12.9 0.00 0.00 0.00 88 1010.6
20260507183055 15 113 4.8 11.3 0.00 0.00 0.00 86 1010.5
20260507181554 15 86 6.4 16.1 0.00 0.00 0.00 84 1010.6
20260507180059 15 80 6.4 11.3 0.00 0.00 0.00 81 1010.3
20260507174606 16 86 6.4 16.1 0.00 0.00 0.00 80 1010.1
20260507173052 16 82 6.4 16.1 0.00 0.00 0.00 78 1009.8
20260507171603 16 63 6.4 14.5 0.00 0.00 0.00 76 1010.0
20260507170051 16 78 6.4 17.7 0.00 0.00 0.00 74 1009.9
20260507164552 16 129 9.7 20.9 0.00 0.00 0.00 73 1009.8
20260507163051 17 40 8.0 17.7 0.00 0.00 0.00 70 1009.9
20260507161547 17 78 11.3 19.3 0.00 0.00 0.00 68 1009.9
20260507160053 17 74 9.7 17.7 0.00 0.00 0.00 68 1010.0
20260507154544 17 86 11.3 19.3 0.00 0.00 0.00 69 1010.0
20260507153046 17 69 8.0 17.7 0.00 0.00 0.00 70 1010.0
20260507151545 17 69 6.4 16.1 0.00 0.00 0.00 69 1010.1
20260507150043 17 74 8.0 16.1 0.00 0.00 0.00 68 1010.1
20260507144542 18 90 8.0 17.7 0.00 0.00 0.00 68 1010.1
20260507143048 18 70 4.8 12.9 0.00 0.00 0.00 64 1010.0
20260507141544 19 31 4.8 16.1 0.00 0.00 0.00 63 1010.2
20260507140048 18 79 8.0 17.7 0.00 0.00 0.00 64 1010.1
20260507134540 19 59 6.4 14.5 0.00 0.00 0.00 64 1010.2
20260507133041 19 78 6.4 19.3 0.00 0.00 0.00 63 1010.2
20260507131538 20 84 3.2 12.9 0.00 0.00 0.00 61 1010.3
20260507130049 19 78 3.2 16.1 0.00 0.00 0.00 64 1010.3
20260507124553 19 63 4.8 16.1 0.00 0.00 0.00 63 1010.2
20260507123036 19 95 8.0 17.7 0.00 0.00 0.00 62 1010.3
20260507121536 20 86 4.8 16.1 0.00 0.00 0.00 60 1010.3
20260507120033 20 19 3.2 22.5 0.00 0.00 0.00 60 1010.4
20260507114532 20 53 8.0 22.5 0.00 0.00 0.00 58 1010.4
20260507113031 22 119 1.6 9.7 0.00 0.00 0.00 47 1010.4
20260507111529 21 9 0.0 4.8 0.00 0.00 0.00 46 1010.6
20260507110031 21 246 1.6 6.4 0.00 0.00 0.00 49 1010.7
20260507104525 21 66 1.6 6.4 0.00 0.00 0.00 48 1010.8
20260507103024 21 258 1.6 4.8 0.00 0.00 0.00 51 1010.7
20260507101525 20 293 3.2 8.0 0.00 0.00 0.00 54 1010.8
20260507100025 21 311 1.6 8.0 0.00 0.00 0.00 53 1010.9
20260507094520 20 29 0.0 6.4 0.00 0.00 0.00 51 1010.9
20260507093026 19 294 4.8 8.0 0.00 0.00 0.00 53 1010.9
20260507091531 20 293 1.6 6.4 0.00 0.00 0.00 53 1010.8
20260507090018 20 348 1.6 4.8 0.00 0.00 0.00 54 1010.8
20260507084520 20 87 0.0 11.3 0.00 0.00 0.00 53 1010.8
20260507083014 20 211 0.0 8.0 0.00 0.00 0.00 52 1010.7
20260507081511 19 185 1.6 9.7 0.00 0.00 0.00 52 1010.5
20260507080010 19 134 1.6 4.8 0.00 0.00 0.00 53 1010.5
20260507074509 19 77 3.2 9.7 0.00 0.00 0.00 54 1010.3
20260507073005 18 350 0.0 3.2 0.00 0.00 0.00 60 1010.3
20260507071504 18 86 0.0 6.4 0.00 0.00 0.00 64 1010.3
20260507070116 17 324 0.0 3.2 0.00 0.00 0.00 66 1010.3
20260507064605 16 360 1.6 4.8 0.00 0.00 0.00 69 1010.3
20260507063059 15 164 1.6 8.0 0.00 0.00 0.00 72 1010.1
20260507061553 13 190 0.0 6.4 0.00 0.00 0.00 71 1010.2
20260507060051 13 257 0.0 6.4 0.00 0.00 0.00 72 1010.0
20260507054553 13 351 0.0 9.7 0.00 0.00 0.00 74 1009.9
20260507053048 13 166 4.8 9.7 0.00 0.00 0.00 73 1009.9
20260507051648 13 198 4.8 8.0 0.00 0.00 0.00 73 1009.9
20260507050046 13 287 0.0 4.8 0.00 0.05 0.00 75 1009.8
20260507044545 13 277 0.0 3.2 0.00 0.05 0.00 74 1009.7
20260507043042 13 241 0.0 3.2 0.00 0.05 0.00 73 1009.4
20260507041541 13 199 0.0 4.8 0.00 0.05 0.00 74 1009.3
20260507040040 14 146 1.6 3.2 0.00 0.05 0.00 74 1009.3
20260507034540 13 150 0.0 6.4 0.00 0.05 0.00 75 1009.0
20260507033037 13 154 0.0 3.2 0.00 0.05 0.00 77 1009.0
20260507031537 13 167 0.0 1.6 0.00 0.05 0.00 78 1009.0
20260507030036 13 167 0.0 1.6 0.00 0.05 0.00 77 1008.9
20260507024536 14 161 1.6 3.2 0.00 0.05 0.00 77 1008.9
20260507023035 14 318 0.0 3.2 0.00 0.05 0.00 77 1008.8
20260507021533 15 210 0.0 3.2 0.00 0.05 0.00 76 1008.9
20260507020041 15 318 0.0 3.2 0.00 0.05 0.00 76 1008.9
20260507014533 14 304 0.0 8.0 0.00 0.05 0.00 77 1008.9
20260507013045 14 279 0.0 3.2 0.00 0.05 0.00 80 1008.8
20260507011531 14 202 3.2 8.0 0.00 0.05 0.00 79 1008.8
20260507010036 14 200 3.2 9.7 0.00 0.05 0.00 80 1008.8
20260507004527 14 222 3.2 6.4 0.00 0.05 0.00 80 1008.9
20260507003027 15 279 0.0 3.2 0.00 0.05 0.00 78 1008.9
20260507001530 15 189 0.0 1.6 0.00 0.05 0.00 78 1008.9
20260507000027 14 294 1.6 4.8 0.00 0.05 0.00 79 1009.0
20260506234531 14 288 1.6 4.8 0.00 0.05 0.00 82 1009.0
20260506233027 15 296 0.0 3.2 0.00 0.05 0.00 81 1009.0
20260506231524 15 101 0.0 1.6 0.00 0.05 0.00 77 1008.9
20260506230021 16 76 3.2 8.0 0.00 0.05 0.00 74 1008.8
20260506224515 16 110 0.0 6.4 0.00 0.05 0.00 72 1008.8
20260506223014 16 236 1.6 9.7 0.00 0.05 0.00 72 1009.0
20260506221512 16 136 6.4 12.9 0.00 0.05 0.00 72 1008.8
20260506220021 16 107 6.4 14.5 0.00 0.13 0.05 72 1008.8
20260506214510 16 116 3.2 8.0 0.00 0.13 0.05 73 1009.0
20260506213008 16 105 3.2 12.9 0.00 0.13 0.05 74 1009.0
20260506211513 16 87 1.6 12.9 0.00 0.13 0.05 75 1009.0
20260506210012 15 138 4.8 16.1 0.00 0.25 0.05 79 1008.8
20260506204506 15 96 1.6 4.8 0.00 0.25 0.05 82 1009.0